Location: Arleux
(50.3632°N, 2.8721°E)
Time: 08:33:24
(UTC+00:00)

ALOS - Pass Details

Date: 15 December 2019
Orbit: 683 x 685 km, 97.8° (Epoch: 28 January)

Event Time Altitude Azimuth Distance (km) Brightness Sun altitude
Rises 04:28:23 0° 21° (NNE) 3,065 5.9 -29.5°
Reaches altitude 10° 04:30:53 10° 32° (NNE) 2,144 5.1 -29.1°
Maximum altitude 04:35:02 30° 94° (E) 1,219 4.1 -28.4°
Drops below altitude 10° 04:39:08 10° 156° (SSE) 2,128 5.1 -27.8°
Sets 04:41:36 0° 167° (SSE) 3,038 5.8 -27.4°
